| time (UTC) | temp F | wind direction | speed MPH | gust MPH | rain 1hr in | rain 24hr in | rain mn in | humidity % | barometer mb |
| 20260507222507 | 62 | 314 | 10.0 | 14.0 | 0.00 | 0.00 | 0.00 | 36 | 1005.0 |
| 20260507222003 | 62 | 296 | 5.0 | 15.0 | 0.00 | 0.00 | 0.00 | 33 | 1004.8 |
| 20260507221500 | 63 | 283 | 8.0 | 14.0 | 0.00 | 0.00 | 0.00 | 33 | 1004.7 |
| 20260507220956 | 62 | 290 | 8.0 | 16.0 | 0.00 | 0.00 | 0.00 | 32 | 1004.5 |
| 20260507220454 | 63 | 306 | 3.0 | 11.0 | 0.00 | 0.00 | 0.00 | 34 | 1004.7 |
| 20260507215950 | 63 | 320 | 5.0 | 14.0 | 0.00 | 0.00 | 0.00 | 34 | 1004.6 |
| 20260507215447 | 63 | 303 | 10.0 | 21.0 | 0.00 | 0.00 | 0.00 | 34 | 1004.6 |
| 20260507214944 | 63 | 277 | 4.0 | 12.0 | 0.00 | 0.00 | 0.00 | 33 | 1004.6 |
| 20260507214442 | 63 | 278 | 9.0 | 13.0 | 0.00 | 0.00 | 0.00 | 33 | 1004.6 |
| 20260507213937 | 62 | 279 | 5.0 | 12.0 | 0.00 | 0.00 | 0.00 | 35 | 1004.5 |
| 20260507213434 | 63 | 324 | 5.0 | 11.0 | 0.00 | 0.00 | 0.00 | 37 | 1004.5 |
| 20260507212931 | 64 | 318 | 9.0 | 13.0 | 0.00 | 0.00 | 0.00 | 32 | 1004.3 |
| 20260507212426 | 64 | 288 | 5.0 | 15.0 | 0.00 | 0.00 | 0.00 | 33 | 1004.6 |
| 20260507211924 | 64 | 269 | 4.0 | 17.0 | 0.00 | 0.00 | 0.00 | 32 | 1004.6 |
| 20260507211421 | 63 | 312 | 10.0 | 15.0 | 0.00 | 0.00 | 0.00 | 32 | 1004.4 |
| 20260507210917 | 63 | 318 | 11.0 | 16.0 | 0.00 | 0.00 | 0.00 | 33 | 1004.4 |
| 20260507210414 | 63 | 282 | 9.0 | 26.0 | 0.00 | 0.00 | 0.00 | 32 | 1004.4 |
| 20260507205910 | 64 | 307 | 9.0 | 16.0 | 0.00 | 0.00 | 0.00 | 32 | 1004.5 |
| 20260507205409 | 64 | 350 | 2.0 | 10.0 | 0.00 | 0.00 | 0.00 | 33 | 1004.5 |
| 20260507204904 | 64 | 251 | 11.0 | 17.0 | 0.00 | 0.00 | 0.00 | 32 | 1004.3 |
| 20260507204401 | 63 | 290 | 9.0 | 23.0 | 0.00 | 0.00 | 0.00 | 31 | 1004.5 |
| 20260507203858 | 64 | 298 | 11.0 | 21.0 | 0.00 | 0.00 | 0.00 | 32 | 1004.5 |
| 20260507203356 | 63 | 264 | 11.0 | 20.0 | 0.00 | 0.00 | 0.00 | 34 | 1004.4 |
| 20260507202852 | 64 | 268 | 7.0 | 17.0 | 0.00 | 0.00 | 0.00 | 31 | 1004.3 |
| 20260507202349 | 64 | 291 | 11.0 | 15.0 | 0.00 | 0.00 | 0.00 | 32 | 1004.4 |
| 20260507201844 | 63 | 281 | 7.0 | 25.0 | 0.00 | 0.00 | 0.00 | 33 | 1004.5 |
| 20260507201340 | 64 | 279 | 13.0 | 14.0 | 0.00 | 0.00 | 0.00 | 33 | 1004.3 |
| 20260507200837 | 64 | 317 | 10.0 | 12.0 | 0.00 | 0.00 | 0.00 | 34 | 1004.4 |
| 20260507200333 | 64 | 283 | 9.0 | 13.0 | 0.00 | 0.00 | 0.00 | 35 | 1004.5 |
| 20260507195829 | 64 | 304 | 4.0 | 16.0 | 0.00 | 0.00 | 0.00 | 34 | 1004.7 |
| 20260507195326 | 64 | 308 | 6.0 | 19.0 | 0.00 | 0.00 | 0.00 | 35 | 1004.6 |
| 20260507194824 | 65 | 261 | 14.0 | 15.0 | 0.00 | 0.00 | 0.00 | 35 | 1004.5 |
| 20260507194320 | 64 | 0 | 5.0 | 12.0 | 0.00 | 0.00 | 0.00 | 35 | 1004.6 |
| 20260507193816 | 64 | 0 | 5.0 | 12.0 | 0.00 | 0.00 | 0.00 | 35 | 1004.7 |
| 20260507193314 | 64 | 0 | 5.0 | 12.0 | 0.00 | 0.00 | 0.00 | 35 | 1004.7 |
| 20260507192809 | 64 | 0 | 5.0 | 12.0 | 0.00 | 0.00 | 0.00 | 35 | 1004.6 |
| 20260507192306 | 64 | 337 | 4.0 | 13.0 | 0.00 | 0.00 | 0.00 | 37 | 1004.9 |
| 20260507191802 | 64 | 318 | 8.0 | 17.0 | 0.00 | 0.00 | 0.00 | 38 | 1004.8 |
| 20260507191259 | 65 | 263 | 5.0 | 14.0 | 0.00 | 0.00 | 0.00 | 36 | 1004.8 |
| 20260507190756 | 65 | 321 | 6.0 | 11.0 | 0.00 | 0.00 | 0.00 | 37 | 1004.8 |
| 20260507190254 | 63 | 355 | 7.0 | 15.0 | 0.00 | 0.00 | 0.00 | 37 | 1004.9 |
| 20260507185752 | 65 | 308 | 14.0 | 15.0 | 0.00 | 0.00 | 0.00 | 38 | 1005.1 |
| 20260507185249 | 63 | 323 | 6.0 | 14.0 | 0.00 | 0.00 | 0.00 | 36 | 1005.0 |
| 20260507184746 | 64 | 328 | 4.0 | 15.0 | 0.00 | 0.00 | 0.00 | 38 | 1004.8 |
| 20260507184245 | 63 | 263 | 14.0 | 19.0 | 0.00 | 0.00 | 0.00 | 35 | 1005.1 |
| 20260507183741 | 63 | 282 | 9.0 | 23.0 | 0.00 | 0.00 | 0.00 | 36 | 1005.0 |
| 20260507183237 | 63 | 284 | 12.0 | 26.0 | 0.00 | 0.00 | 0.00 | 34 | 1005.1 |
| 20260507182735 | 64 | 252 | 7.0 | 18.0 | 0.00 | 0.00 | 0.00 | 34 | 1005.3 |
| 20260507182230 | 64 | 284 | 14.0 | 16.0 | 0.00 | 0.00 | 0.00 | 35 | 1005.2 |
| 20260507181727 | 63 | 261 | 7.0 | 17.0 | 0.00 | 0.00 | 0.00 | 36 | 1005.3 |
| 20260507181224 | 63 | 282 | 6.0 | 15.0 | 0.00 | 0.00 | 0.00 | 36 | 1005.3 |
| 20260507180720 | 63 | 272 | 8.0 | 19.0 | 0.00 | 0.00 | 0.00 | 38 | 1005.6 |
| 20260507180217 | 64 | 317 | 4.0 | 10.0 | 0.00 | 0.00 | 0.00 | 38 | 1005.3 |
| 20260507175713 | 64 | 317 | 4.0 | 10.0 | 0.00 | 0.00 | 0.00 | 38 | 1005.3 |
| 20260507175210 | 62 | 305 | 9.0 | 13.0 | 0.00 | 0.00 | 0.00 | 38 | 1005.3 |
| 20260507174707 | 63 | 278 | 3.0 | 5.0 | 0.00 | 0.00 | 0.00 | 39 | 1005.3 |
| 20260507174205 | 63 | 278 | 3.0 | 5.0 | 0.00 | 0.00 | 0.00 | 39 | 1005.2 |
| 20260507173702 | 63 | 325 | 4.0 | 11.0 | 0.00 | 0.00 | 0.00 | 39 | 1005.3 |
| 20260507173159 | 62 | 296 | 11.0 | 16.0 | 0.00 | 0.00 | 0.00 | 38 | 1005.4 |
| 20260507172656 | 62 | 244 | 12.0 | 12.0 | 0.00 | 0.00 | 0.00 | 49 | 1005.7 |
| 20260507172153 | 62 | 244 | 12.0 | 12.0 | 0.00 | 0.00 | 0.00 | 49 | 1005.7 |
| 20260507171652 | 63 | 278 | 8.0 | 15.0 | 0.00 | 0.00 | 0.00 | 45 | 1005.6 |
| 20260507171150 | 62 | 267 | 12.0 | 20.0 | 0.00 | 0.00 | 0.00 | 45 | 1005.6 |
| 20260507170647 | 62 | 267 | 12.0 | 20.0 | 0.00 | 0.00 | 0.00 | 45 | 1005.8 |
| 20260507170144 | 62 | 295 | 8.0 | 15.0 | 0.00 | 0.00 | 0.00 | 47 | 1005.7 |
| 20260507165639 | 62 | 340 | 9.0 | 15.0 | 0.00 | 0.00 | 0.00 | 51 | 1005.7 |
| 20260507165136 | 62 | 315 | 6.0 | 14.0 | 0.00 | 0.00 | 0.00 | 50 | 1005.9 |
| 20260507164632 | 61 | 300 | 8.0 | 15.0 | 0.00 | 0.00 | 0.00 | 51 | 1006.0 |
| 20260507164130 | 60 | 298 | 11.0 | 15.0 | 0.00 | 0.00 | 0.00 | 56 | 1006.1 |
| 20260507163626 | 59 | 301 | 11.0 | 17.0 | 0.00 | 0.00 | 0.00 | 56 | 1005.8 |
| 20260507163124 | 59 | 298 | 9.0 | 17.0 | 0.00 | 0.00 | 0.00 | 55 | 1005.9 |
| 20260507162620 | 61 | 296 | 9.0 | 14.0 | 0.00 | 0.00 | 0.00 | 53 | 1006.1 |
| 20260507162117 | 60 | 257 | 6.0 | 11.0 | 0.00 | 0.00 | 0.00 | 55 | 1006.1 |
| 20260507161613 | 60 | 273 | 7.0 | 15.0 | 0.00 | 0.00 | 0.00 | 53 | 1006.4 |
| 20260507161110 | 62 | 296 | 7.0 | 13.0 | 0.00 | 0.00 | 0.00 | 53 | 1006.4 |
| 20260507160606 | 60 | 259 | 13.0 | 15.0 | 0.00 | 0.00 | 0.00 | 53 | 1006.4 |
| 20260507155557 | 59 | 293 | 8.0 | 13.0 | 0.00 | 0.00 | 0.00 | 53 | 1006.5 |
| 20260507155055 | 60 | 321 | 11.0 | 13.0 | 0.00 | 0.00 | 0.00 | 54 | 1006.6 |
| 20260507154552 | 60 | 309 | 6.0 | 21.0 | 0.00 | 0.00 | 0.00 | 51 | 1006.6 |
| 20260507154049 | 62 | 294 | 14.0 | 16.0 | 0.00 | 0.00 | 0.00 | 48 | 1006.5 |
| 20260507153545 | 60 | 307 | 6.0 | 13.0 | 0.00 | 0.00 | 0.00 | 49 | 1006.6 |
| 20260507153042 | 60 | 235 | 11.0 | 13.0 | 0.00 | 0.00 | 0.00 | 48 | 1006.4 |
| 20260507152538 | 61 | 242 | 4.0 | 15.0 | 0.00 | 0.00 | 0.00 | 47 | 1006.8 |
| 20260507152034 | 60 | 280 | 4.0 | 18.0 | 0.00 | 0.00 | 0.00 | 51 | 1007.1 |
| 20260507151530 | 60 | 293 | 10.0 | 19.0 | 0.00 | 0.00 | 0.00 | 51 | 1006.8 |
| 20260507151027 | 61 | 303 | 4.0 | 14.0 | 0.00 | 0.00 | 0.00 | 51 | 1007.1 |
| 20260507150525 | 59 | 300 | 4.0 | 14.0 | 0.00 | 0.00 | 0.00 | 54 | 1006.9 |
| 20260507150021 | 60 | 308 | 12.0 | 12.0 | 0.00 | 0.00 | 0.00 | 51 | 1007.2 |
| 20260507145516 | 60 | 288 | 10.0 | 16.0 | 0.00 | 0.00 | 0.00 | 50 | 1007.1 |
| 20260507145014 | 59 | 213 | 7.0 | 9.0 | 0.00 | 0.00 | 0.00 | 55 | 1007.1 |
| 20260507144510 | 60 | 288 | 6.0 | 13.0 | 0.00 | 0.00 | 0.00 | 54 | 1007.1 |
| 20260507144008 | 59 | 297 | 3.0 | 11.0 | 0.00 | 0.00 | 0.00 | 55 | 1007.0 |
| 20260507143505 | 59 | 271 | 11.0 | 15.0 | 0.00 | 0.00 | 0.00 | 55 | 1007.1 |
| 20260507143002 | 60 | 284 | 19.0 | 19.0 | 0.00 | 0.00 | 0.00 | 55 | 1007.3 |
| 20260507142457 | 59 | 296 | 10.0 | 13.0 | 0.00 | 0.00 | 0.00 | 55 | 1007.3 |
| 20260507141955 | 59 | 316 | 3.0 | 8.0 | 0.00 | 0.00 | 0.00 | 59 | 1007.3 |
| 20260507141450 | 59 | 316 | 3.0 | 8.0 | 0.00 | 0.00 | 0.00 | 59 | 1007.1 |
| 20260507140947 | 58 | 307 | 3.0 | 7.0 | 0.00 | 0.00 | 0.00 | 63 | 1007.2 |
| 20260507140444 | 59 | 10 | 2.0 | 8.0 | 0.00 | 0.00 | 0.00 | 59 | 1007.2 |
| 20260507135942 | 58 | 13 | 4.0 | 9.0 | 0.00 | 0.00 | 0.00 | 61 | 1007.3 |
| 20260507135438 | 57 | 20 | 4.0 | 7.0 | 0.00 | 0.00 | 0.00 | 61 | 1007.4 |
| 20260507134936 | 57 | 331 | 7.0 | 9.0 | 0.00 | 0.00 | 0.00 | 61 | 1007.3 |
| 20260507134432 | 57 | 315 | 5.0 | 7.0 | 0.00 | 0.00 | 0.00 | 62 | 1007.3 |
| 20260507133928 | 57 | 342 | 6.0 | 7.0 | 0.00 | 0.00 | 0.00 | 62 | 1007.3 |
| 20260507133425 | 57 | 350 | 3.0 | 7.0 | 0.00 | 0.00 | 0.00 | 63 | 1007.4 |
| 20260507132923 | 57 | 337 | 5.0 | 8.0 | 0.00 | 0.00 | 0.00 | 64 | 1007.9 |
| 20260507132419 | 57 | 298 | 6.0 | 10.0 | 0.00 | 0.00 | 0.00 | 63 | 1007.8 |
| 20260507131915 | 57 | 293 | 8.0 | 10.0 | 0.00 | 0.00 | 0.00 | 64 | 1007.7 |
| 20260507131413 | 56 | 299 | 3.0 | 9.0 | 0.00 | 0.00 | 0.00 | 65 | 1007.8 |
| 20260507130910 | 55 | 286 | 6.0 | 13.0 | 0.00 | 0.00 | 0.00 | 65 | 1007.9 |
| 20260507130406 | 56 | 336 | 4.0 | 12.0 | 0.00 | 0.00 | 0.00 | 64 | 1007.8 |
| 20260507125905 | 55 | 320 | 4.0 | 7.0 | 0.00 | 0.00 | 0.00 | 67 | 1007.9 |
| 20260507125403 | 55 | 305 | 3.0 | 10.0 | 0.00 | 0.00 | 0.00 | 68 | 1007.9 |
| 20260507124900 | 54 | 298 | 9.0 | 11.0 | 0.00 | 0.00 | 0.00 | 69 | 1007.9 |
| 20260507124355 | 54 | 303 | 5.0 | 8.0 | 0.00 | 0.00 | 0.00 | 70 | 1007.7 |
| 20260507123855 | 54 | 344 | 8.0 | 13.0 | 0.00 | 0.00 | 0.00 | 71 | 1007.7 |
| 20260507123351 | 52 | 321 | 5.0 | 11.0 | 0.00 | 0.00 | 0.00 | 72 | 1007.8 |
| 20260507122847 | 53 | 302 | 6.0 | 9.0 | 0.00 | 0.00 | 0.00 | 72 | 1007.8 |
| 20260507122343 | 53 | 310 | 4.0 | 16.0 | 0.00 | 0.00 | 0.00 | 72 | 1007.9 |
| 20260507121840 | 53 | 327 | 5.0 | 10.0 | 0.00 | 0.00 | 0.00 | 74 | 1008.1 |
| 20260507121335 | 52 | 295 | 7.0 | 11.0 | 0.00 | 0.00 | 0.00 | 74 | 1008.1 |
| 20260507120832 | 53 | 302 | 4.0 | 8.0 | 0.00 | 0.00 | 0.00 | 75 | 1008.5 |
| 20260507120328 | 51 | 318 | 7.0 | 18.0 | 0.00 | 0.00 | 0.00 | 76 | 1008.0 |
| 20260507115825 | 50 | 324 | 6.0 | 12.0 | 0.00 | 0.00 | 0.00 | 78 | 1007.7 |
| 20260507115320 | 51 | 325 | 4.0 | 13.0 | 0.00 | 0.00 | 0.00 | 78 | 1007.9 |
| 20260507114816 | 51 | 285 | 10.0 | 15.0 | 0.00 | 0.00 | 0.00 | 79 | 1007.7 |
| 20260507114314 | 50 | 303 | 5.0 | 13.0 | 0.00 | 0.00 | 0.00 | 81 | 1007.8 |
| 20260507113811 | 50 | 316 | 5.0 | 14.0 | 0.00 | 0.00 | 0.00 | 81 | 1007.8 |
| 20260507113308 | 49 | 322 | 4.0 | 10.0 | 0.00 | 0.00 | 0.00 | 82 | 1007.6 |
| 20260507112806 | 49 | 308 | 4.0 | 11.0 | 0.00 | 0.00 | 0.00 | 82 | 1007.5 |
| 20260507112306 | 49 | 333 | 5.0 | 13.0 | 0.00 | 0.00 | 0.00 | 82 | 1007.3 |
| 20260507111800 | 49 | 304 | 5.0 | 15.0 | 0.00 | 0.00 | 0.00 | 82 | 1007.4 |
| 20260507111256 | 49 | 322 | 5.0 | 13.0 | 0.00 | 0.00 | 0.00 | 83 | 1007.8 |
| 20260507110752 | 49 | 331 | 3.0 | 11.0 | 0.00 | 0.00 | 0.00 | 83 | 1007.7 |
| 20260507110249 | 49 | 349 | 3.0 | 8.0 | 0.00 | 0.00 | 0.00 | 83 | 1008.0 |
| 20260507105746 | 49 | 316 | 2.0 | 10.0 | 0.00 | 0.00 | 0.00 | 84 | 1007.7 |
| 20260507105242 | 49 | 282 | 5.0 | 8.0 | 0.00 | 0.00 | 0.00 | 85 | 1007.5 |
| 20260507104739 | 49 | 326 | 5.0 | 12.0 | 0.00 | 0.00 | 0.00 | 85 | 1007.3 |
| 20260507104236 | 48 | 329 | 2.0 | 6.0 | 0.00 | 0.00 | 0.00 | 85 | 1007.1 |
| 20260507103732 | 49 | 331 | 3.0 | 6.0 | 0.00 | 0.00 | 0.00 | 85 | 1007.4 |
| 20260507103228 | 49 | 316 | 8.0 | 14.0 | 0.00 | 0.00 | 0.00 | 85 | 1006.9 |
| 20260507102725 | 48 | 301 | 9.0 | 10.0 | 0.00 | 0.00 | 0.00 | 86 | 1007.1 |
| 20260507102221 | 49 | 309 | 3.0 | 10.0 | 0.00 | 0.00 | 0.00 | 86 | 1007.2 |
| 20260507101717 | 49 | 323 | 5.0 | 11.0 | 0.00 | 0.00 | 0.00 | 86 | 1007.5 |
| 20260507101213 | 49 | 341 | 7.0 | 14.0 | 0.00 | 0.00 | 0.00 | 86 | 1007.1 |
| 20260507100710 | 48 | 344 | 4.0 | 11.0 | 0.00 | 0.00 | 0.00 | 86 | 1006.9 |
| 20260507100209 | 48 | 340 | 5.0 | 5.0 | 0.00 | 0.00 | 0.00 | 87 | 1007.2 |
| 20260507095707 | 49 | 298 | 4.0 | 14.0 | 0.00 | 0.00 | 0.00 | 86 | 1007.4 |
| 20260507095203 | 49 | 317 | 4.0 | 15.0 | 0.00 | 0.00 | 0.00 | 86 | 1007.2 |
| 20260507094659 | 49 | 305 | 8.0 | 11.0 | 0.00 | 0.00 | 0.00 | 86 | 1007.0 |
| 20260507094156 | 49 | 314 | 8.0 | 13.0 | 0.00 | 0.00 | 0.00 | 87 | 1006.9 |
| 20260507093653 | 49 | 306 | 3.0 | 15.0 | 0.00 | 0.00 | 0.00 | 87 | 1006.9 |
| 20260507093152 | 49 | 333 | 0.0 | 7.0 | 0.00 | 0.00 | 0.00 | 87 | 1007.2 |
| 20260507092649 | 49 | 297 | 7.0 | 12.0 | 0.00 | 0.00 | 0.00 | 86 | 1007.2 |
| 20260507092145 | 49 | 284 | 4.0 | 13.0 | 0.00 | 0.00 | 0.00 | 86 | 1007.3 |
| 20260507091642 | 49 | 292 | 3.0 | 11.0 | 0.00 | 0.00 | 0.00 | 86 | 1007.3 |
| 20260507091138 | 49 | 289 | 4.0 | 11.0 | 0.00 | 0.00 | 0.00 | 86 | 1007.1 |
| 20260507090633 | 49 | 281 | 5.0 | 13.0 | 0.00 | 0.00 | 0.00 | 85 | 1007.0 |
| 20260507090131 | 49 | 315 | 6.0 | 12.0 | 0.00 | 0.00 | 0.00 | 85 | 1006.7 |
| 20260507085628 | 49 | 281 | 4.0 | 14.0 | 0.00 | 0.00 | 0.00 | 85 | 1006.6 |
| 20260507085124 | 50 | 283 | 5.0 | 12.0 | 0.00 | 0.00 | 0.00 | 86 | 1006.4 |
| 20260507084621 | 50 | 279 | 4.0 | 14.0 | 0.00 | 0.00 | 0.00 | 85 | 1006.8 |
| 20260507084118 | 50 | 308 | 11.0 | 17.0 | 0.00 | 0.00 | 0.00 | 85 | 1006.6 |
| 20260507083615 | 50 | 324 | 4.0 | 11.0 | 0.00 | 0.00 | 0.00 | 86 | 1006.4 |
| 20260507083112 | 50 | 280 | 5.0 | 11.0 | 0.00 | 0.00 | 0.00 | 86 | 1006.5 |
| 20260507082607 | 50 | 325 | 4.0 | 13.0 | 0.00 | 0.00 | 0.00 | 86 | 1006.1 |
| 20260507082104 | 50 | 294 | 5.0 | 12.0 | 0.00 | 0.00 | 0.00 | 87 | 1006.3 |
| 20260507081600 | 49 | 297 | 9.0 | 10.0 | 0.00 | 0.00 | 0.00 | 88 | 1006.5 |
| 20260507081058 | 50 | 283 | 9.0 | 18.0 | 0.00 | 0.00 | 0.00 | 88 | 1006.6 |
| 20260507080553 | 50 | 272 | 11.0 | 19.0 | 0.00 | 0.00 | 0.00 | 87 | 1006.8 |
| 20260507080050 | 51 | 300 | 6.0 | 15.0 | 0.00 | 0.00 | 0.00 | 85 | 1006.4 |
| 20260507075545 | 51 | 301 | 10.0 | 25.0 | 0.00 | 0.00 | 0.00 | 84 | 1006.5 |
| 20260507075042 | 51 | 295 | 15.0 | 16.0 | 0.00 | 0.00 | 0.00 | 84 | 1006.3 |
| 20260507074539 | 51 | 310 | 9.0 | 15.0 | 0.00 | 0.00 | 0.00 | 84 | 1006.2 |
| 20260507074037 | 51 | 312 | 6.0 | 13.0 | 0.00 | 0.00 | 0.00 | 84 | 1006.4 |
| 20260507073533 | 51 | 294 | 9.0 | 17.0 | 0.00 | 0.00 | 0.00 | 84 | 1006.2 |
| 20260507073030 | 51 | 296 | 6.0 | 13.0 | 0.00 | 0.00 | 0.00 | 85 | 1006.1 |
| 20260507072527 | 51 | 304 | 7.0 | 19.0 | 0.00 | 0.00 | 0.00 | 85 | 1006.1 |
| 20260507072024 | 51 | 308 | 3.0 | 16.0 | 0.00 | 0.00 | 0.00 | 86 | 1006.2 |
| 20260507071522 | 51 | 333 | 11.0 | 13.0 | 0.00 | 0.00 | 0.00 | 87 | 1005.9 |
| 20260507071018 | 52 | 311 | 3.0 | 17.0 | 0.00 | 0.00 | 0.00 | 88 | 1005.9 |
| 20260507070515 | 52 | 293 | 6.0 | 12.0 | 0.00 | 0.00 | 0.00 | 89 | 1006.0 |
| 20260507070013 | 52 | 289 | 6.0 | 11.0 | 0.00 | 0.00 | 0.00 | 90 | 1005.9 |
| 20260507065508 | 52 | 295 | 4.0 | 9.0 | 0.00 | 0.00 | 0.00 | 91 | 1005.8 |
| 20260507065006 | 52 | 291 | 2.0 | 7.0 | 0.00 | 0.00 | 0.00 | 91 | 1005.8 |
| 20260507064504 | 52 | 304 | 5.0 | 10.0 | 0.00 | 0.00 | 0.00 | 91 | 1006.0 |
| 20260507064002 | 52 | 281 | 5.0 | 9.0 | 0.00 | 0.00 | 0.00 | 91 | 1005.6 |
| 20260507063458 | 52 | 288 | 6.0 | 9.0 | 0.00 | 0.00 | 0.00 | 91 | 1005.6 |
| 20260507062955 | 52 | 277 | 3.0 | 8.0 | 0.00 | 0.00 | 0.00 | 90 | 1005.5 |
| 20260507062452 | 53 | 294 | 2.0 | 8.0 | 0.00 | 0.00 | 0.00 | 90 | 1005.4 |
| 20260507061950 | 53 | 289 | 4.0 | 14.0 | 0.00 | 0.00 | 0.00 | 90 | 1005.8 |
| 20260507061448 | 53 | 284 | 4.0 | 11.0 | 0.00 | 0.00 | 0.00 | 90 | 1006.0 |
| 20260507060946 | 53 | 307 | 4.0 | 11.0 | 0.00 | 0.00 | 0.00 | 89 | 1005.7 |
| 20260507060442 | 53 | 281 | 3.0 | 12.0 | 0.00 | 0.00 | 0.00 | 89 | 1005.8 |
| 20260507055939 | 53 | 292 | 5.0 | 14.0 | 0.00 | 0.00 | 0.00 | 90 | 1005.8 |
| 20260507055434 | 53 | 288 | 8.0 | 9.0 | 0.00 | 0.00 | 0.00 | 90 | 1006.0 |
| 20260507054931 | 53 | 289 | 7.0 | 16.0 | 0.00 | 0.00 | 0.00 | 90 | 1006.2 |
| 20260507054427 | 53 | 314 | 3.0 | 10.0 | 0.00 | 0.00 | 0.00 | 90 | 1005.7 |
| 20260507053925 | 53 | 298 | 6.0 | 13.0 | 0.00 | 0.00 | 0.00 | 90 | 1005.6 |
| 20260507053422 | 53 | 296 | 5.0 | 12.0 | 0.00 | 0.00 | 0.00 | 90 | 1005.8 |
| 20260507052921 | 53 | 294 | 7.0 | 14.0 | 0.00 | 0.00 | 0.00 | 90 | 1005.7 |
| 20260507052418 | 53 | 315 | 6.0 | 12.0 | 0.00 | 0.00 | 0.00 | 90 | 1005.6 |
| 20260507051914 | 53 | 317 | 4.0 | 16.0 | 0.00 | 0.00 | 0.00 | 90 | 1005.9 |
| 20260507051412 | 54 | 293 | 4.0 | 9.0 | 0.00 | 0.00 | 0.00 | 91 | 1006.3 |
| 20260507050909 | 54 | 294 | 3.0 | 16.0 | 0.00 | 0.00 | 0.00 | 91 | 1006.0 |
| 20260507050405 | 54 | 298 | 5.0 | 10.0 | 0.00 | 0.00 | 0.00 | 91 | 1006.1 |
| 20260507045902 | 54 | 282 | 7.0 | 9.0 | 0.00 | 0.00 | 0.00 | 92 | 1005.9 |
| 20260507045359 | 54 | 285 | 6.0 | 16.0 | 0.00 | 0.00 | 0.00 | 92 | 1005.8 |
| 20260507044856 | 54 | 285 | 9.0 | 14.0 | 0.00 | 0.00 | 0.00 | 92 | 1005.8 |
| 20260507044353 | 54 | 264 | 5.0 | 17.0 | 0.00 | 0.00 | 0.00 | 92 | 1005.6 |
| 20260507043849 | 54 | 293 | 15.0 | 15.0 | 0.00 | 0.00 | 0.00 | 93 | 1005.6 |
| 20260507043346 | 55 | 318 | 7.0 | 16.0 | 0.00 | 0.00 | 0.00 | 94 | 1005.4 |
| 20260507042842 | 56 | 334 | 6.0 | 11.0 | 0.00 | 0.00 | 0.00 | 94 | 1005.6 |
| 20260507042338 | 56 | 311 | 9.0 | 17.0 | 0.00 | 0.00 | 0.00 | 94 | 1006.0 |
| 20260507041835 | 57 | 299 | 7.0 | 15.0 | 0.00 | 0.00 | 0.00 | 95 | 1005.9 |
| 20260507041331 | 58 | 318 | 4.0 | 7.0 | 0.00 | 0.00 | 0.00 | 96 | 1005.6 |
| 20260507040828 | 59 | 312 | 5.0 | 7.0 | 0.00 | 0.00 | 0.00 | 97 | 1005.7 |
| 20260507040324 | 59 | 271 | 4.0 | 12.0 | 0.00 | 0.00 | 0.00 | 97 | 1005.4 |
| 20260507035820 | 59 | 292 | 2.0 | 7.0 | 0.00 | 0.00 | 0.00 | 97 | 1005.3 |
| 20260507035316 | 59 | 268 | 5.0 | 11.0 | 0.00 | 0.00 | 0.00 | 97 | 1005.4 |
| 20260507034814 | 59 | 264 | 9.0 | 11.0 | 0.00 | 0.00 | 0.00 | 98 | 1005.3 |
| 20260507034310 | 59 | 274 | 4.0 | 11.0 | 0.00 | 0.00 | 0.00 | 98 | 1005.3 |
| 20260507033809 | 59 | 265 | 7.0 | 14.0 | 0.00 | 0.00 | 0.00 | 98 | 1005.0 |
| 20260507033306 | 59 | 255 | 7.0 | 8.0 | 0.00 | 0.00 | 0.00 | 97 | 1004.9 |
| 20260507032803 | 59 | 243 | 5.0 | 11.0 | 0.00 | 0.00 | 0.00 | 97 | 1004.7 |
| 20260507032259 | 59 | 250 | 4.0 | 11.0 | 0.00 | 0.00 | 0.00 | 97 | 1004.8 |
| 20260507031756 | 59 | 251 | 5.0 | 11.0 | 0.00 | 0.00 | 0.00 | 97 | 1004.6 |
| 20260507031253 | 59 | 239 | 3.0 | 12.0 | 0.00 | 0.00 | 0.00 | 97 | 1004.5 |
| 20260507030749 | 59 | 247 | 9.0 | 11.0 | 0.00 | 0.00 | 0.00 | 97 | 1004.5 |
| 20260507030247 | 59 | 211 | 6.0 | 11.0 | 0.00 | 0.00 | 0.00 | 97 | 1004.5 |
| 20260507025744 | 59 | 196 | 5.0 | 13.0 | 0.00 | 0.00 | 0.00 | 97 | 1004.6 |
| 20260507025241 | 59 | 246 | 6.0 | 11.0 | 0.00 | 0.00 | 0.00 | 97 | 1004.6 |
| 20260507024739 | 59 | 212 | 9.0 | 17.0 | 0.00 | 0.00 | 0.00 | 97 | 1004.8 |
| 20260507024236 | 59 | 252 | 4.0 | 7.0 | 0.00 | 0.00 | 0.00 | 97 | 1004.8 |
| 20260507023731 | 59 | 199 | 3.0 | 9.0 | 0.00 | 0.00 | 0.00 | 97 | 1004.9 |
| 20260507023229 | 59 | 210 | 5.0 | 7.0 | 0.00 | 0.00 | 0.00 | 97 | 1004.5 |
| 20260507022726 | 59 | 233 | 5.0 | 12.0 | 0.00 | 0.00 | 0.00 | 97 | 1004.8 |
| 20260507022222 | 59 | 222 | 8.0 | 9.0 | 0.00 | 0.00 | 0.00 | 97 | 1004.5 |
| 20260507021718 | 59 | 191 | 5.0 | 6.0 | 0.00 | 0.00 | 0.00 | 97 | 1004.6 |
| 20260507021214 | 59 | 207 | 3.0 | 6.0 | 0.00 | 0.00 | 0.00 | 97 | 1004.6 |
| 20260507020712 | 59 | 232 | 7.0 | 10.0 | 0.00 | 0.00 | 0.00 | 97 | 1004.6 |
| 20260507020208 | 59 | 230 | 3.0 | 11.0 | 0.00 | 0.00 | 0.00 | 97 | 1005.0 |
| 20260507015706 | 59 | 226 | 5.0 | 11.0 | 0.00 | 0.00 | 0.00 | 97 | 1005.0 |
| 20260507015203 | 59 | 204 | 5.0 | 12.0 | 0.00 | 0.00 | 0.00 | 97 | 1004.9 |
| 20260507014700 | 59 | 217 | 5.0 | 11.0 | 0.00 | 0.00 | 0.00 | 97 | 1005.0 |
| 20260507014156 | 59 | 224 | 7.0 | 15.0 | 0.00 | 0.00 | 0.00 | 97 | 1005.0 |
| 20260507013653 | 59 | 212 | 9.0 | 11.0 | 0.00 | 0.00 | 0.00 | 97 | 1005.0 |
| 20260507013150 | 59 | 243 | 9.0 | 10.0 | 0.00 | 0.00 | 0.00 | 97 | 1005.1 |
| 20260507012648 | 59 | 208 | 4.0 | 13.0 | 0.00 | 0.00 | 0.00 | 97 | 1004.9 |
| 20260507012143 | 58 | 215 | 6.0 | 13.0 | 0.00 | 0.00 | 0.00 | 97 | 1005.0 |
| 20260507011641 | 58 | 207 | 5.0 | 11.0 | 0.00 | 0.00 | 0.00 | 98 | 1005.1 |
| 20260507011137 | 58 | 196 | 5.0 | 10.0 | 0.00 | 0.00 | 0.00 | 98 | 1005.1 |
| 20260507010632 | 58 | 198 | 3.0 | 14.0 | 0.00 | 0.00 | 0.00 | 98 | 1004.7 |
| 20260507010128 | 58 | 218 | 7.0 | 19.0 | 0.00 | 0.00 | 0.00 | 98 | 1005.0 |
| 20260507005626 | 58 | 208 | 7.0 | 19.0 | 0.00 | 0.00 | 0.00 | 98 | 1005.0 |
| 20260507005121 | 58 | 224 | 7.0 | 12.0 | 0.00 | 0.00 | 0.00 | 98 | 1005.0 |
| 20260507004619 | 58 | 210 | 6.0 | 11.0 | 0.00 | 0.00 | 0.00 | 98 | 1005.0 |
| 20260507004116 | 58 | 196 | 6.0 | 10.0 | 0.00 | 0.00 | 0.00 | 98 | 1005.0 |
| 20260507003612 | 58 | 180 | 5.0 | 10.0 | 0.00 | 0.00 | 0.00 | 98 | 1005.0 |
| 20260507003107 | 58 | 205 | 13.0 | 14.0 | 0.00 | 0.00 | 0.00 | 98 | 1005.1 |
| 20260507002604 | 58 | 187 | 6.0 | 12.0 | 0.00 | 0.00 | 0.00 | 98 | 1005.1 |
| 20260507002059 | 58 | 193 | 6.0 | 14.0 | 0.00 | 0.00 | 0.00 | 98 | 1004.8 |
| 20260507001557 | 58 | 190 | 8.0 | 10.0 | 0.00 | 0.00 | 0.00 | 98 | 1004.7 |
| 20260507001054 | 58 | 212 | 10.0 | 11.0 | 0.00 | 0.00 | 0.00 | 98 | 1004.7 |
| 20260507000550 | 58 | 178 | 5.0 | 10.0 | 0.00 | 0.00 | 0.00 | 98 | 1004.8 |
| 20260507000046 | 58 | 193 | 9.0 | 12.0 | 0.00 | 0.00 | 0.00 | 98 | 1004.7 |
| 20260506235543 | 58 | 191 | 11.0 | 11.0 | 0.00 | 0.00 | 0.00 | 97 | 1004.8 |
| 20260506235038 | 58 | 195 | 14.0 | 14.0 | 0.00 | 0.00 | 0.00 | 97 | 1004.5 |
| 20260506234536 | 59 | 180 | 9.0 | 10.0 | 0.00 | 0.00 | 0.00 | 97 | 1004.7 |
| 20260506234033 | 59 | 198 | 5.0 | 15.0 | 0.00 | 0.00 | 0.00 | 97 | 1004.9 |
| 20260506233530 | 59 | 176 | 6.0 | 12.0 | 0.00 | 0.00 | 0.00 | 97 | 1004.7 |
| 20260506233027 | 59 | 196 | 4.0 | 13.0 | 0.00 | 0.00 | 0.00 | 96 | 1004.8 |
| 20260506232523 | 59 | 197 | 11.0 | 14.0 | 0.00 | 0.00 | 0.00 | 96 | 1004.7 |
| 20260506232018 | 60 | 159 | 5.0 | 11.0 | 0.00 | 0.00 | 0.00 | 96 | 1005.0 |
| 20260506231516 | 60 | 200 | 8.0 | 10.0 | 0.00 | 0.00 | 0.00 | 96 | 1004.8 |
| 20260506231014 | 60 | 204 | 7.0 | 15.0 | 0.00 | 0.00 | 0.00 | 96 | 1004.8 |
| 20260506230510 | 60 | 218 | 8.0 | 12.0 | 0.00 | 0.00 | 0.00 | 96 | 1004.9 |
| 20260506230008 | 60 | 203 | 9.0 | 10.0 | 0.00 | 0.00 | 0.00 | 96 | 1005.0 |
| 20260506225504 | 60 | 182 | 5.0 | 10.0 | 0.00 | 0.00 | 0.00 | 96 | 1005.0 |
| 20260506225001 | 60 | 200 | 8.0 | 9.0 | 0.00 | 0.00 | 0.00 | 96 | 1004.8 |
| 20260506224458 | 60 | 201 | 6.0 | 9.0 | 0.00 | 0.00 | 0.00 | 95 | 1004.8 |
| 20260506223954 | 60 | 177 | 7.0 | 14.0 | 0.00 | 0.00 | 0.00 | 95 | 1004.9 |
| 20260506223450 | 60 | 193 | 10.0 | 14.0 | 0.00 | 0.00 | 0.00 | 94 | 1005.2 |
| 20260506222948 | 60 | 184 | 5.0 | 13.0 | 0.00 | 0.00 | 0.00 | 94 | 1005.3 |